sat.trackr.live / text

‹ back to catalog

GAOFEN-9 05

NORAD 46232 · 2020-058A

PAYLOAD ACTIVE UNKNOWN

§ Identity

Operator
Country
PRC
Launch date
2020-08-23
Launch site
JSC
Launch vehicle
Mass (kg)
RCS (m²)

External: N2YO · Heavens-Above · Gunter

§ Orbital elements

Epoch: 2026-05-25T05:04:15.233952Z

Period
94.02 min
Inclination
97.2106°
Eccentricity
0.0008904
Mean motion
15.31549752 rev/d
Perigee alt
465.1 km
Apogee alt
477.3 km
Semi-major
6,849.3 km
B*
1.9275e-4
RAAN
186.1111°
Arg perigee
166.3128°
Mean anomaly
193.8357°
Rev number
32,009

§ Raw data

GAOFEN-9 051 46232U 20058A   26145.21128743  .00005803  00000+0  19275-3 0  99902 46232  97.2106 186.1111 0008904 166.3128 193.8357 15.31549752320093

JSON: /api/v1/satellites/46232 · /tle

For live sub-satellite position, see the globe view (requires WebGL).

§ Visibility from observer

Set your observer location to see the next 7 days of passes ≥ 10°. The values pass through the URL so the page stays shareable.

No JS? Fill the form by hand. The geolocation button needs JavaScript.